STARLINK-37260

Last updated on Sun Apr 12 2026 00:02:09 GMT+0000 (Coordinated Universal Time)

1 68510U 26068C 26101.50002315 .00034264 00000+0 17658-3 0 9996 2 68510 53.1598 344.8810 0001053 82.0693 47.9046 15.80856197 3089
UTC large
Height (km)
Speed (km/s)
/
Latitude / Longitude
Inclination (degrees)
Orbital Period (minutes)
Azimuth
Elevation
Range (km)
Doppler Factor

Next 0 passes for location: London (51.5072 / 0.1276)

Sorry there are no passes over London.
STARLINK-37260